Time,TemperatureF,DewpointF,PressureIn,WindDirection,WindDirectionDegrees,WindSpeedMPH,WindSpeedGustMPH,Humidity,HourlyPrecipIn,Conditions,Clouds,dailyrainin,SoftwareType,DateUTC
2013-02-14 00:01:00,48.3,47.0,30.22,South,183,1.0,-999.0,94,-99.99,,,0.00,weatherlink.com 1.10,2013-02-14 08:01:00,
2013-02-14 00:16:00,48.2,46.0,30.22,South,183,0.0,-999.0,93,-99.99,,,0.00,weatherlink.com 1.10,2013-02-14 08:16:00,
2013-02-14 00:31:00,48.2,47.0,30.22,South,183,0.0,-999.0,94,-99.99,,,0.00,weatherlink.com 1.10,2013-02-14 08:31:00,
2013-02-14 00:46:00,48.0,46.0,30.22,South,183,0.0,-999.0,93,-99.99,,,0.00,weatherlink.com 1.10,2013-02-14 08:46:00,
2013-02-14 01:01:00,47.9,46.0,30.22,South,183,0.0,-999.0,93,-99.99,,,0.00,weatherlink.com 1.10,2013-02-14 09:01:00,
2013-02-14 01:16:00,47.6,46.0,30.22,South,183,0.0,-999.0,93,-99.99,,,0.00,weatherlink.com 1.10,2013-02-14 09:16:00,
2013-02-14 01:31:00,47.3,45.0,30.22,South,183,0.0,-999.0,93,-99.99,,,0.00,weatherlink.com 1.10,2013-02-14 09:31:00,
2013-02-14 01:46:00,47.3,45.0,30.23,South,183,0.0,-999.0,93,-99.99,,,0.00,weatherlink.com 1.10,2013-02-14 09:46:00,
2013-02-14 02:01:00,47.0,45.0,30.22,South,183,0.0,-999.0,94,-99.99,,,0.00,weatherlink.com 1.10,2013-02-14 10:01:00,
2013-02-14 02:16:00,46.8,45.0,30.22,South,183,0.0,-999.0,94,-99.99,,,0.00,weatherlink.com 1.10,2013-02-14 10:16:00,
2013-02-14 02:31:00,46.5,45.0,30.22,South,183,0.0,-999.0,94,-99.99,,,0.00,weatherlink.com 1.10,2013-02-14 10:31:00,
2013-02-14 02:46:00,46.0,44.0,30.22,South,183,0.0,-999.0,94,-99.99,,,0.00,weatherlink.com 1.10,2013-02-14 10:46:00,
2013-02-14 03:01:00,45.1,44.0,30.21,South,183,0.0,-999.0,94,-99.99,,,0.00,weatherlink.com 1.10,2013-02-14 11:01:00,
2013-02-14 03:16:00,44.1,42.0,30.21,South,183,0.0,-999.0,93,-99.99,,,0.00,weatherlink.com 1.10,2013-02-14 11:16:00,
2013-02-14 03:31:00,43.6,42.0,30.20,South,183,0.0,-999.0,93,-99.99,,,0.00,weatherlink.com 1.10,2013-02-14 11:31:00,
2013-02-14 03:46:00,43.2,42.0,30.20,South,183,0.0,-999.0,94,-99.99,,,0.00,weatherlink.com 1.10,2013-02-14 11:46:00,
2013-02-14 04:01:00,43.1,42.0,30.20,South,183,0.0,-999.0,94,-99.99,,,0.00,weatherlink.com 1.10,2013-02-14 12:01:00,
2013-02-14 04:17:00,43.5,42.0,30.20,South,183,0.0,-999.0,94,-99.99,,,0.00,weatherlink.com 1.10,2013-02-14 12:17:00,
2013-02-14 04:31:00,44.5,43.0,30.20,South,183,0.0,-999.0,95,-99.99,,,0.00,weatherlink.com 1.10,2013-02-14 12:31:00,
2013-02-14 04:46:00,45.2,44.0,30.20,South,183,0.0,-999.0,95,-99.99,,,0.00,weatherlink.com 1.10,2013-02-14 12:46:00,
2013-02-14 05:02:00,45.7,44.0,30.20,South,183,0.0,-999.0,95,-99.99,,,0.00,weatherlink.com 1.10,2013-02-14 13:02:00,
2013-02-14 05:16:00,45.7,44.0,30.21,South,183,0.0,-999.0,95,-99.99,,,0.00,weatherlink.com 1.10,2013-02-14 13:16:00,
2013-02-14 05:31:00,45.7,45.0,30.21,South,183,0.0,-999.0,96,-99.99,,,0.00,weatherlink.com 1.10,2013-02-14 13:31:00,
2013-02-14 05:46:00,45.4,44.0,30.20,South,183,0.0,-999.0,96,-99.99,,,0.00,weatherlink.com 1.10,2013-02-14 13:46:00,
2013-02-14 06:01:00,44.9,44.0,30.21,South,183,0.0,-999.0,96,-99.99,,,0.00,weatherlink.com 1.10,2013-02-14 14:01:00,
2013-02-14 06:16:00,44.3,43.0,30.21,South,183,0.0,-999.0,95,-99.99,,,0.00,weatherlink.com 1.10,2013-02-14 14:16:00,
2013-02-14 06:32:00,44.1,43.0,30.21,South,183,0.0,-999.0,96,-99.99,,,0.00,weatherlink.com 1.10,2013-02-14 14:32:00,
2013-02-14 06:46:00,44.2,43.0,30.22,South,183,0.0,-999.0,96,-99.99,,,0.00,weatherlink.com 1.10,2013-02-14 14:46:00,
2013-02-14 07:01:00,44.3,43.0,30.23,South,183,0.0,-999.0,96,-99.99,,,0.00,weatherlink.com 1.10,2013-02-14 15:01:00,
2013-02-14 07:17:00,44.3,43.0,30.23,South,183,0.0,-999.0,96,-99.99,,,0.00,weatherlink.com 1.10,2013-02-14 15:17:00,
2013-02-14 07:31:00,43.9,43.0,30.23,South,183,0.0,-999.0,96,-99.99,,,0.00,weatherlink.com 1.10,2013-02-14 15:31:00,
2013-02-14 07:47:00,43.5,43.0,30.23,South,183,0.0,-999.0,96,-99.99,,,0.00,weatherlink.com 1.10,2013-02-14 15:47:00,
2013-02-14 08:01:00,43.8,43.0,30.23,South,183,0.0,-999.0,96,-99.99,,,0.00,weatherlink.com 1.10,2013-02-14 16:01:00,
2013-02-14 08:17:00,44.9,44.0,30.24,South,183,0.0,-999.0,96,-99.99,,,0.00,weatherlink.com 1.10,2013-02-14 16:17:00,
2013-02-14 08:32:00,46.2,45.0,30.24,South,183,0.0,-999.0,97,-99.99,,,0.00,weatherlink.com 1.10,2013-02-14 16:32:00,
2013-02-14 08:46:00,47.0,46.0,30.24,South,183,0.0,-999.0,96,-99.99,,,0.00,weatherlink.com 1.10,2013-02-14 16:46:00,
2013-02-14 09:01:00,47.9,47.0,30.24,South,183,0.0,-999.0,96,-99.99,,,0.00,weatherlink.com 1.10,2013-02-14 17:01:00,
2013-02-14 09:17:00,48.9,48.0,30.24,SW,229,0.0,-999.0,96,-99.99,,,0.00,weatherlink.com 1.10,2013-02-14 17:17:00,
2013-02-14 09:31:00,49.4,48.0,30.24,SW,229,0.0,-999.0,93,-99.99,,,0.00,weatherlink.com 1.10,2013-02-14 17:31:00,
2013-02-14 09:47:00,50.2,48.0,30.24,SW,228,0.0,-999.0,92,-99.99,,,0.00,weatherlink.com 1.10,2013-02-14 17:47:00,
2013-02-14 10:02:00,52.2,49.0,30.23,SW,228,0.0,-999.0,87,-99.99,,,0.00,weatherlink.com 1.10,2013-02-14 18:02:00,
2013-02-14 10:17:00,54.4,47.0,30.23,SW,228,2.0,-999.0,76,-99.99,,,0.00,weatherlink.com 1.10,2013-02-14 18:17:00,
2013-02-14 10:32:00,55.6,46.0,30.23,WSW,258,0.0,-999.0,71,-99.99,,,0.00,weatherlink.com 1.10,2013-02-14 18:32:00,
2013-02-14 10:47:00,57.3,47.0,30.23,SW,232,1.0,-999.0,69,-99.99,,,0.00,weatherlink.com 1.10,2013-02-14 18:47:00,
2013-02-14 11:02:00,58.3,46.0,30.23,WSW,254,2.0,-999.0,65,-99.99,,,0.00,weatherlink.com 1.10,2013-02-14 19:02:00,
2013-02-14 11:17:00,59.6,46.0,30.22,SW,223,0.0,-999.0,61,-99.99,,,0.00,weatherlink.com 1.10,2013-02-14 19:17:00,
2013-02-14 11:32:00,61.0,46.0,30.22,SSW,205,0.0,-999.0,59,-99.99,,,0.00,weatherlink.com 1.10,2013-02-14 19:32:00,
2013-02-14 11:47:00,62.7,47.0,30.21,SSW,202,0.0,-999.0,57,-99.99,,,0.00,weatherlink.com 1.10,2013-02-14 19:47:00,
2013-02-14 12:02:00,62.4,46.0,30.21,WSW,247,0.0,-999.0,55,-99.99,,,0.00,weatherlink.com 1.10,2013-02-14 20:02:00,
2013-02-14 12:17:00,62.1,45.0,30.20,WSW,250,0.0,-999.0,53,-99.99,,,0.00,weatherlink.com 1.10,2013-02-14 20:17:00,
2013-02-14 12:32:00,63.2,44.0,30.20,WSW,242,1.0,-999.0,50,-99.99,,,0.00,weatherlink.com 1.10,2013-02-14 20:32:00,
2013-02-14 12:47:00,65.2,45.0,30.20,West,265,2.0,-999.0,48,-99.99,,,0.00,weatherlink.com 1.10,2013-02-14 20:47:00,
2013-02-14 13:03:00,64.5,45.0,30.20,SW,234,1.0,-999.0,49,-99.99,,,0.00,weatherlink.com 1.10,2013-02-14 21:03:00,
2013-02-14 13:17:00,65.6,44.0,30.18,WNW,290,0.0,-999.0,46,-99.99,,,0.00,weatherlink.com 1.10,2013-02-14 21:17:00,
2013-02-14 13:32:00,66.6,44.0,30.18,SW,236,1.0,-999.0,44,-99.99,,,0.00,weatherlink.com 1.10,2013-02-14 21:32:00,
2013-02-14 13:48:00,66.3,44.0,30.17,WSW,247,2.0,-999.0,44,-99.99,,,0.00,weatherlink.com 1.10,2013-02-14 21:48:00,
2013-02-14 14:02:00,68.1,43.0,30.17,WSW,238,2.0,-999.0,40,-99.99,,,0.00,weatherlink.com 1.10,2013-02-14 22:02:00,
2013-02-14 14:19:00,68.6,43.0,30.17,WSW,248,0.0,-999.0,39,-99.99,,,0.00,weatherlink.com 1.10,2013-02-14 22:19:00,
2013-02-14 14:32:00,68.9,43.0,30.16,WSW,254,1.0,-999.0,40,-99.99,,,0.00,weatherlink.com 1.10,2013-02-14 22:32:00,
2013-02-14 14:48:00,69.8,43.0,30.17,West,265,1.0,-999.0,38,-99.99,,,0.00,weatherlink.com 1.10,2013-02-14 22:48:00,
2013-02-14 15:02:00,69.6,42.0,30.17,South,180,1.0,-999.0,37,-99.99,,,0.00,weatherlink.com 1.10,2013-02-14 23:02:00,
2013-02-14 15:18:00,69.3,43.0,30.17,WSW,244,0.0,-999.0,39,-99.99,,,0.00,weatherlink.com 1.10,2013-02-14 23:18:00,
2013-02-14 15:35:00,69.6,43.0,30.17,SW,231,1.0,-999.0,38,-99.99,,,0.00,weatherlink.com 1.10,2013-02-14 23:35:00,
2013-02-14 15:49:00,70.1,43.0,30.17,SW,230,0.0,-999.0,38,-99.99,,,0.00,weatherlink.com 1.10,2013-02-14 23:49:00,
2013-02-14 16:04:00,69.3,44.0,30.17,West,266,0.0,-999.0,40,-99.99,,,0.00,weatherlink.com 1.10,2013-02-15 00:04:00,
2013-02-14 16:18:00,69.1,43.0,30.16,WSW,257,0.0,-999.0,39,-99.99,,,0.00,weatherlink.com 1.10,2013-02-15 00:18:00,
2013-02-14 16:35:00,68.3,45.0,30.16,WSW,249,0.0,-999.0,44,-99.99,,,0.00,weatherlink.com 1.10,2013-02-15 00:35:00,
2013-02-14 16:49:00,66.8,45.0,30.16,WSW,249,0.0,-999.0,45,-99.99,,,0.00,weatherlink.com 1.10,2013-02-15 00:49:00,
2013-02-14 17:04:00,66.1,44.0,30.16,WSW,249,0.0,-999.0,45,-99.99,,,0.00,weatherlink.com 1.10,2013-02-15 01:04:00,
2013-02-14 17:18:00,65.5,43.0,30.16,WSW,249,0.0,-999.0,45,-99.99,,,0.00,weatherlink.com 1.10,2013-02-15 01:18:00,
2013-02-14 17:34:00,64.0,44.0,30.16,WSW,249,0.0,-999.0,49,-99.99,,,0.00,weatherlink.com 1.10,2013-02-15 01:34:00,
2013-02-14 17:48:00,62.4,45.0,30.16,WSW,249,0.0,-999.0,53,-99.99,,,0.00,weatherlink.com 1.10,2013-02-15 01:48:00,
2013-02-14 18:05:00,60.5,45.0,30.17,WSW,250,0.0,-999.0,57,-99.99,,,0.00,weatherlink.com 1.10,2013-02-15 02:05:00,
2013-02-14 18:19:00,59.3,45.0,30.17,WSW,250,0.0,-999.0,59,-99.99,,,0.00,weatherlink.com 1.10,2013-02-15 02:19:00,
2013-02-14 18:34:00,58.0,45.0,30.17,WSW,250,0.0,-999.0,63,-99.99,,,0.00,weatherlink.com 1.10,2013-02-15 02:34:00,
2013-02-14 18:48:00,57.0,45.0,30.17,WSW,250,0.0,-999.0,64,-99.99,,,0.00,weatherlink.com 1.10,2013-02-15 02:48:00,
2013-02-14 19:04:00,56.3,45.0,30.17,WSW,250,0.0,-999.0,66,-99.99,,,0.00,weatherlink.com 1.10,2013-02-15 03:04:00,
2013-02-14 19:19:00,55.6,45.0,30.18,WSW,250,0.0,-999.0,67,-99.99,,,0.00,weatherlink.com 1.10,2013-02-15 03:19:00,
2013-02-14 19:35:00,55.0,45.0,30.18,WSW,250,0.0,-999.0,69,-99.99,,,0.00,weatherlink.com 1.10,2013-02-15 03:35:00,
2013-02-14 19:50:00,54.2,45.0,30.18,WSW,250,0.0,-999.0,70,-99.99,,,0.00,weatherlink.com 1.10,2013-02-15 03:50:00,
2013-02-14 20:04:00,53.6,44.0,30.18,WSW,250,0.0,-999.0,71,-99.99,,,0.00,weatherlink.com 1.10,2013-02-15 04:04:00,
2013-02-14 20:19:00,53.1,44.0,30.18,WSW,250,0.0,-999.0,71,-99.99,,,0.00,weatherlink.com 1.10,2013-02-15 04:19:00,
2013-02-14 20:34:00,52.8,44.0,30.18,WSW,250,0.0,-999.0,71,-99.99,,,0.00,weatherlink.com 1.10,2013-02-15 04:34:00,
2013-02-14 20:49:00,52.3,44.0,30.19,WSW,250,0.0,-999.0,72,-99.99,,,0.00,weatherlink.com 1.10,2013-02-15 04:49:00,
2013-02-14 21:04:00,51.9,43.0,30.19,WSW,250,0.0,-999.0,73,-99.99,,,0.00,weatherlink.com 1.10,2013-02-15 05:04:00,
2013-02-14 21:19:00,51.9,43.0,30.19,WSW,250,0.0,-999.0,72,-99.99,,,0.00,weatherlink.com 1.10,2013-02-15 05:19:00,
2013-02-14 21:35:00,51.4,43.0,30.20,WSW,250,0.0,-999.0,73,-99.99,,,0.00,weatherlink.com 1.10,2013-02-15 05:35:00,
2013-02-14 21:49:00,51.3,43.0,30.20,WSW,250,0.0,-999.0,73,-99.99,,,0.00,weatherlink.com 1.10,2013-02-15 05:49:00,
2013-02-14 22:05:00,51.6,43.0,30.20,WSW,250,0.0,-999.0,72,-99.99,,,0.00,weatherlink.com 1.10,2013-02-15 06:05:00,
2013-02-14 22:20:00,51.6,43.0,30.20,WSW,250,0.0,-999.0,72,-99.99,,,0.00,weatherlink.com 1.10,2013-02-15 06:20:00,
2013-02-14 22:34:00,51.9,42.0,30.20,WSW,250,0.0,-999.0,70,-99.99,,,0.00,weatherlink.com 1.10,2013-02-15 06:34:00,
2013-02-14 22:50:00,51.4,42.0,30.20,WSW,250,0.0,-999.0,71,-99.99,,,0.00,weatherlink.com 1.10,2013-02-15 06:50:00,
2013-02-14 23:04:00,51.1,42.0,30.20,WSW,250,0.0,-999.0,72,-99.99,,,0.00,weatherlink.com 1.10,2013-02-15 07:04:00,
2013-02-14 23:20:00,50.8,42.0,30.20,WSW,250,0.0,-999.0,72,-99.99,,,0.00,weatherlink.com 1.10,2013-02-15 07:20:00,
2013-02-14 23:35:00,50.8,42.0,30.20,WSW,250,0.0,-999.0,72,-99.99,,,0.00,weatherlink.com 1.10,2013-02-15 07:35:00,
2013-02-14 23:49:00,50.5,42.0,30.20,WSW,250,0.0,-999.0,73,-99.99,,,0.00,weatherlink.com 1.10,2013-02-15 07:49:00,